GW1014 Weather Reports


time (UTC)temp
F
wind
direction
speed
knots
gust
knots
rain 1hr
in
rain 24hr
in
rain mn
in
humidity
%
barometer
mb
20260510184154 82 260 0.9 2.6 0.00 0.00 0.00 29 1015.5
20260510183649 82 298 3.5 7.0 0.00 0.00 0.00 30 1015.3
20260510183145 81 267 2.6 6.1 0.00 0.00 0.00 33 1015.3
20260510182642 81 332 0.0 0.9 0.00 0.00 0.00 33 1015.2
20260510182137 81 331 0.9 3.5 0.00 0.00 0.00 30 1015.4
20260510181635 82 251 1.7 2.6 0.00 0.00 0.00 33 1015.5
20260510181131 82 128 0.9 2.6 0.00 0.00 0.00 34 1015.4
20260510180627 82 311 1.7 5.2 0.00 0.00 0.00 34 1015.7
20260510180125 82 252 0.9 2.6 0.00 0.00 0.00 31 1015.6
20260510175620 82 303 0.9 0.9 0.00 0.00 0.00 32 1015.7
20260510175116 82 265 3.5 3.5 0.00 0.00 0.00 31 1015.8
20260510174614 80 218 0.9 1.7 0.00 0.00 0.00 36 1015.8
20260510174111 80 136 2.6 3.5 0.00 0.00 0.00 35 1015.7
20260510173607 80 36 0.0 1.7 0.00 0.00 0.00 36 1015.9
20260510173104 81 322 0.0 1.7 0.00 0.00 0.00 33 1015.9
20260510172559 80 243 0.9 1.7 0.00 0.00 0.00 35 1015.9
20260510172055 80 249 0.9 2.6 0.00 0.00 0.00 32 1016.0
20260510171552 80 257 1.7 6.1 0.00 0.00 0.00 31 1016.0
20260510171050 79 268 0.9 2.6 0.00 0.00 0.00 37 1016.0
20260510170546 79 128 1.7 2.6 0.00 0.00 0.00 31 1016.0
20260510170043 79 232 2.6 2.6 0.00 0.00 0.00 42 1015.9
20260510165538 79 250 1.7 2.6 0.00 0.00 0.00 38 1015.9
20260510165035 78 353 0.0 0.9 0.00 0.00 0.00 36 1016.1
20260510164532 78 17 0.0 0.0 0.00 0.00 0.00 37 1016.3
20260510164029 78 246 0.9 1.7 0.00 0.00 0.00 37 1016.1
20260510163524 78 255 0.0 1.7 0.00 0.00 0.00 37 1016.3
20260510163020 78 330 0.0 1.7 0.00 0.00 0.00 39 1016.1
20260510162516 77 125 0.0 0.9 0.00 0.00 0.00 36 1016.3
20260510162013 77 310 0.0 0.0 0.00 0.00 0.00 36 1016.4
20260510161509 76 329 0.0 1.7 0.00 0.00 0.00 33 1016.4
20260510161006 76 61 3.5 5.2 0.00 0.00 0.00 39 1016.3
20260510160503 76 92 0.9 1.7 0.00 0.00 0.00 40 1016.3
20260510160001 76 29 3.5 3.5 0.00 0.00 0.00 36 1016.4
20260510155458 75 27 0.9 0.9 0.00 0.00 0.00 40 1016.6
20260510154955 76 323 0.9 0.9 0.00 0.00 0.00 44 1016.4
20260510154451 75 16 0.9 2.6 0.00 0.00 0.00 40 1016.5
20260510153950 75 326 0.9 2.6 0.00 0.00 0.00 38 1016.4
20260510153446 75 258 3.5 3.5 0.00 0.00 0.00 40 1016.4
20260510152943 75 321 0.0 1.7 0.00 0.00 0.00 41 1016.6
20260510152441 74 291 0.0 3.5 0.00 0.00 0.00 43 1016.4
20260510151937 74 325 0.0 0.9 0.00 0.00 0.00 46 1016.6
20260510151434 74 234 0.9 0.9 0.00 0.00 0.00 45 1016.4
20260510150930 74 45 2.6 2.6 0.00 0.00 0.00 46 1016.6
20260510150426 73 283 0.9 1.7 0.00 0.00 0.00 45 1016.6
20260510145922 73 259 1.7 2.6 0.00 0.00 0.00 49 1016.7
20260510145419 73 262 0.0 1.7 0.00 0.00 0.00 46 1016.7
20260510144915 72 298 0.9 1.7 0.00 0.00 0.00 45 1016.7
20260510144412 72 267 1.7 3.5 0.00 0.00 0.00 47 1016.6
20260510143907 72 256 1.7 3.5 0.00 0.00 0.00 47 1016.7
20260510143403 72 331 1.7 2.6 0.00 0.00 0.00 48 1016.7
20260510142900 71 253 0.0 1.7 0.00 0.00 0.00 49 1016.8
20260510142357 71 294 0.0 0.9 0.00 0.00 0.00 52 1016.6
20260510141853 71 235 1.7 2.6 0.00 0.00 0.00 48 1016.6
20260510141351 71 330 1.7 2.6 0.00 0.00 0.00 52 1016.6
20260510140848 70 357 0.0 0.0 0.00 0.00 0.00 57 1016.7
20260510140344 70 55 0.0 1.7 0.00 0.00 0.00 56
20260510135843 70 253 3.5 3.5 0.00 0.00 0.00 59
20260510135339 69 273 1.7 2.6 0.00 0.00 0.00 59
20260510134837 69 257 2.6 2.6 0.00 0.00 0.00 63
20260510134333 69 260 1.7 2.6 0.00 0.00 0.00 63 1016.4
20260510133830 68 264 0.9 1.7 0.00 0.00 0.00 66 1016.4
20260510133326 68 273 0.0 0.9 0.00 0.00 0.00 66 1016.5
20260510132821 68 273 0.0 0.9 0.00 0.00 0.00 69 1016.4
20260510132320 67 251 1.7 2.6 0.00 0.00 0.00 71
20260510131816 67 39 0.9 1.7 0.00 0.00 0.00 72
20260510131314 66 44 0.0 0.9 0.00 0.00 0.00 75
20260510130810 66 332 0.0 0.9 0.00 0.00 0.00 77
20260510130307 65 2 0.0 0.9 0.00 0.00 0.00 81
20260510125804 61 242 1.7 1.7 0.00 0.00 0.00 90
20260510125259 60 314 0.0 0.9 0.00 0.00 0.00 99 1016.4
20260510124757 61 221 0.0 0.0 0.00 0.00 0.00 99 1016.4
20260510124254 61 223 0.0 0.0 0.00 0.00 0.00 99
20260510123749 61 223 0.0 0.0 0.00 0.00 0.00 99
20260510123245 60 223 0.0 0.0 0.00 0.00 0.00 99
20260510122742 60 223 0.0 0.0 0.00 0.00 0.00 99
20260510122238 59 223 0.0 0.0 0.00 0.00 0.00 99 1016.0
20260510121734 58 223 0.0 0.0 0.00 0.00 0.00 99 1016.0
20260510121232 58 223 0.0 0.0 0.00 0.00 0.00 99 1016.0
20260510120730 57 223 0.0 0.0 0.00 0.00 0.00 99 1015.6
20260510120226 57 223 0.0 0.0 0.00 0.00 0.00 99 1015.6
20260510115721 56 223 0.0 0.0 0.00 0.00 0.00 99 1015.6
20260510115220 56 223 0.0 0.0 0.00 0.00 0.00 99 1015.6
20260510114715 56 223 0.0 0.0 0.00 0.00 0.00 99 1015.5
20260510114212 55 223 0.0 0.0 0.00 0.00 0.00 99 1015.2
20260510113707 55 222 0.0 0.0 0.00 0.00 0.00 99 1015.2
20260510113204 55 223 0.0 0.0 0.00 0.00 0.00 99 1015.2
20260510112700 54 222 0.0 0.0 0.00 0.00 0.00 99
20260510112158 54 222 0.0 0.0 0.00 0.00 0.00 99
20260510111648 54 223 0.0 0.0 0.00 0.00 0.00 99
20260510111144 53 222 0.0 0.0 0.00 0.00 0.00 99
20260510110639 53 222 0.0 0.0 0.00 0.00 0.00 99
20260510110138 53 222 0.0 0.0 0.00 0.00 0.00 99
20260510105633 53 223 0.0 0.0 0.00 0.00 0.00 99
20260510105132 52 223 0.0 0.0 0.00 0.00 0.00 99
20260510104629 52 223 0.0 0.0 0.00 0.00 0.00 99
20260510104126 52 223 0.0 0.0 0.00 0.00 0.00 99
20260510103623 52 223 0.0 0.0 0.00 0.00 0.00 99
20260510103119 52 223 0.0 0.0 0.00 0.00 0.00 99
20260510102615 52 223 0.0 0.0 0.00 0.00 0.00 99
20260510102110 53 223 0.0 0.0 0.00 0.00 0.00 99
20260510101608 53 223 0.0 0.0 0.00 0.00 0.00 99
20260510101106 53 223 0.0 0.0 0.00 0.00 0.00 99
20260510100602 53 223 0.0 0.0 0.00 0.00 0.00 99
20260510100100 53 223 0.0 0.0 0.00 0.00 0.00 99
20260510095555 53 223 0.0 0.0 0.00 0.00 0.00 99
20260510095050 53 223 0.0 0.0 0.00 0.00 0.00 99
20260510094549 53 223 0.0 0.0 0.00 0.00 0.00 99
20260510094045 54 223 0.0 0.0 0.00 0.00 0.00 99
20260510093542 54 223 0.0 0.0 0.00 0.00 0.00 99
20260510093038 54 223 0.0 0.0 0.00 0.00 0.00 99
20260510092536 54 223 0.0 0.0 0.00 0.00 0.00 99
20260510092035 54 223 0.0 0.0 0.00 0.00 0.00 99
20260510091532 54 223 0.0 0.0 0.00 0.00 0.00 99
20260510091028 55 223 0.0 0.0 0.00 0.00 0.00 99
20260510090525 55 223 0.0 0.0 0.00 0.00 0.00 99
20260510090021 55 223 0.0 0.0 0.00 0.00 0.00 99
20260510085521 55 223 0.0 0.0 0.00 0.00 0.00 99
20260510085017 55 223 0.0 0.0 0.00 0.00 0.00 99
20260510084514 55 223 0.0 0.0 0.00 0.00 0.00 99
20260510084011 55 223 0.0 0.0 0.00 0.00 0.00 99
20260510083507 55 223 0.0 0.0 0.00 0.00 0.00 99
20260510083003 55 223 0.0 0.0 0.00 0.00 0.00 99
20260510082501 55 223 0.0 0.0 0.00 0.00 0.00 99
20260510082000 56 223 0.0 0.0 0.00 0.00 0.00 99
20260510081456 56 223 0.0 0.0 0.00 0.00 0.00 99
20260510080952 56 223 0.0 0.0 0.00 0.00 0.00 99
20260510080451 56 223 0.0 0.0 0.00 0.00 0.00 99
20260510075948 56 223 0.0 0.0 0.00 0.00 0.00 99
20260510075446 56 223 0.0 0.0 0.00 0.00 0.00 99
20260510074942 56 223 0.0 0.0 0.00 0.00 0.00 99
20260510074440 56 223 0.0 0.0 0.00 0.00 0.00 99
20260510073936 57 223 0.0 0.0 0.00 0.00 0.00 99
20260510073431 57 223 0.0 0.0 0.00 0.00 0.00 99
20260510072928 57 223 0.0 0.0 0.00 0.00 0.00 99
20260510072425 57 223 0.0 0.0 0.00 0.00 0.00 99
20260510071920 57 223 0.0 0.0 0.00 0.00 0.00 99
20260510071417 57 223 0.0 0.0 0.00 0.00 0.00 99
20260510070915 57 223 0.0 0.0 0.00 0.00 0.00 99
20260510070412 57 223 0.0 0.0 0.00 0.00 0.00 99
20260510065907 57 223 0.0 0.0 0.00 0.00 0.00 99
20260510065404 57 223 0.0 0.0 0.00 0.00 0.00 99
20260510064901 57 223 0.0 0.0 0.00 0.00 0.00 99
20260510064359 57 223 0.0 0.0 0.00 0.00 0.00 99
20260510063855 57 223 0.0 0.0 0.00 0.00 0.00 99
20260510063351 57 223 0.0 0.0 0.00 0.00 0.00 99
20260510062849 57 223 0.0 0.0 0.00 0.00 0.00 99
20260510062349 57 223 0.0 0.0 0.00 0.00 0.00 99
20260510061845 58 223 0.0 0.0 0.00 0.00 0.00 99
20260510061342 58 223 0.0 0.0 0.00 0.00 0.00 99
20260510060838 58 223 0.0 0.0 0.00 0.00 0.00 99
20260510060335 58 223 0.0 0.0 0.00 0.00 0.00 99
20260510055832 58 223 0.0 0.0 0.00 0.00 0.00 99
20260510055331 58 223 0.0 0.0 0.00 0.00 0.00 99
20260510054830 58 223 0.0 0.0 0.00 0.00 0.00 99
20260510054326 58 223 0.0 0.0 0.00 0.00 0.00 99
20260510053821 58 223 0.0 0.0 0.00 0.00 0.00 99
20260510053317 58 223 0.0 0.0 0.00 0.00 0.00 99
20260510052814 58 223 0.0 0.0 0.00 0.00 0.00 99
20260510052309 58 223 0.0 0.0 0.00 0.00 0.00 99
20260510051805 59 223 0.0 0.0 0.00 0.00 0.00 99
20260510051302 59 223 0.0 0.0 0.00 0.00 0.00 99
20260510050800 59 223 0.0 0.0 0.00 0.00 0.00 99
20260510050256 59 223 0.0 0.0 0.00 0.00 0.00 99
20260510045753 59 223 0.0 0.0 0.00 0.00 0.00 99
20260510045250 59 223 0.0 0.0 0.00 0.00 0.00 99
20260510044747 60 223 0.0 0.0 0.00 0.00 0.00 99
20260510044244 60 223 0.0 0.0 0.00 0.00 0.00 99
20260510043739 60 223 0.0 0.0 0.00 0.00 0.00 99
20260510043237 60 223 0.0 0.0 0.00 0.00 0.00 98
20260510042734 60 223 0.0 0.0 0.00 0.00 0.00 97
20260510042229 60 223 0.0 0.0 0.00 0.00 0.00 97
20260510041726 60 223 0.0 0.0 0.00 0.00 0.00 97
20260510041224 60 223 0.0 0.0 0.00 0.00 0.00 97
20260510040720 61 223 0.0 0.0 0.00 0.00 0.00 97
20260510040217 61 223 0.0 0.0 0.00 0.00 0.00 97
20260510035713 61 223 0.0 0.0 0.00 0.00 0.00 97
20260510035209 61 223 0.0 0.0 0.00 0.00 0.00 96
20260510034705 61 223 0.0 0.0 0.00 0.00 0.00 96
20260510034203 61 223 0.0 0.0 0.00 0.00 0.00 96
20260510033659 62 223 0.0 0.0 0.00 0.00 0.00 96
20260510033157 61 223 0.0 0.0 0.00 0.00 0.00 96
20260510032652 62 223 0.0 0.0 0.00 0.00 0.00 95
20260510032148 62 223 0.0 0.0 0.00 0.00 0.00 95
20260510031643 62 223 0.0 0.0 0.00 0.00 0.00 95
20260510031141 62 223 0.0 0.0 0.00 0.00 0.00 95
20260510030640 62 223 0.0 0.0 0.00 0.00 0.00 95
20260510030138 62 223 0.0 0.0 0.00 0.00 0.00 95
20260510025635 62 223 0.0 0.0 0.00 0.00 0.00 95
20260510025132 62 223 0.0 0.0 0.00 0.00 0.00 95
20260510024629 62 223 0.0 0.0 0.00 0.00 0.00 95
20260510024126 61 223 0.0 0.0 0.00 0.00 0.00 94
20260510023622 61 223 0.0 0.0 0.00 0.00 0.00 94 1012.6
20260510023119 62 223 0.0 0.0 0.00 0.00 0.00 94 1012.6
20260510022619 62 223 0.0 0.0 0.00 0.00 0.00 93 1012.5
20260510022114 62 223 0.0 0.0 0.00 0.00 0.00 93
20260510021610 62 223 0.0 0.0 0.00 0.00 0.00 92
20260510021108 62 223 0.0 0.0 0.00 0.00 0.00 92
20260510020607 62 223 0.0 0.0 0.00 0.00 0.00 92
20260510015559 62 223 0.0 0.0 0.00 0.00 0.00 92
20260510015056 62 223 0.0 0.0 0.00 0.00 0.00 92
20260510014551 62 223 0.0 0.0 0.00 0.00 0.00 91
20260510014049 62 223 0.0 0.0 0.00 0.00 0.00 91
20260510013543 63 223 0.0 0.0 0.00 0.00 0.00 90
20260510013040 63 223 0.0 0.0 0.00 0.00 0.00 90
20260510012533 63 223 0.0 0.0 0.00 0.00 0.00 90
20260510012031 63 223 0.0 0.0 0.00 0.00 0.00 89 1011.7
20260510011530 64 223 0.0 0.0 0.00 0.00 0.00 88 1011.7
20260510011026 64 223 0.0 0.0 0.00 0.00 0.00 89
20260510010523 64 223 0.0 0.0 0.00 0.00 0.00 88 1011.3
20260510010020 64 223 0.0 0.0 0.00 0.00 0.00 87 1011.3
20260510005515 65 223 0.0 0.0 0.00 0.00 0.00 86 1011.4
20260510005013 65 223 0.0 0.0 0.00 0.00 0.00 85 1011.3
20260510004511 65 223 0.0 0.0 0.00 0.00 0.00 84 1011.2
20260510004008 65 223 0.0 0.0 0.00 0.00 0.00 84 1011.1
20260510003505 65 223 0.0 0.0 0.00 0.00 0.00 84 1011.3
20260510003000 66 223 0.0 0.0 0.00 0.00 0.00 83 1011.0
20260510002456 66 223 0.0 0.0 0.00 0.00 0.00 82 1011.0
20260510001953 66 223 0.0 0.0 0.00 0.00 0.00 82 1010.8
20260510001450 67 223 0.0 0.0 0.00 0.00 0.00 81 1010.8
20260510000948 67 223 0.0 0.0 0.00 0.00 0.00 81 1010.9
20260510000444 68 223 0.0 0.0 0.00 0.00 0.00 80 1010.7
20260509235940 68 223 0.0 0.0 0.00 0.00 0.00 80 1010.8
20260509235437 69 223 0.0 0.0 0.00 0.00 0.00 78 1010.8
20260509234933 69 223 0.0 0.0 0.00 0.00 0.00 78 1010.8
20260509234430 69 223 0.0 0.0 0.00 0.00 0.00 77 1010.7
20260509233928 70 223 0.0 0.0 0.00 0.00 0.00 76 1010.6
20260509233426 70 223 0.0 0.0 0.00 0.00 0.00 75 1010.3
20260509232921 70 223 0.0 1.7 0.00 0.00 0.00 76 1010.3
20260509232420 71 223 0.0 0.9 0.00 0.00 0.00 74 1010.4
20260509231915 71 223 1.7 1.7 0.00 0.00 0.00 73 1010.4
20260509231412 71 222 1.7 3.5 0.00 0.00 0.00 72 1010.3
20260509230910 71 223 1.7 1.7 0.00 0.00 0.00 71 1010.4
20260509230407 71 226 0.9 1.7 0.00 0.00 0.00 71 1010.4
20260509225902 71 224 1.7 2.6 0.00 0.00 0.00 71 1010.3
20260509225359 71 238 1.7 1.7 0.00 0.00 0.00 72 1010.2
20260509224855 72 241 0.9 1.7 0.00 0.00 0.00 71 1009.9
20260509224351 72 247 0.9 1.7 0.00 0.00 0.00 70 1009.8
20260509223848 72 281 0.9 0.9 0.00 0.00 0.00 71 1009.9
20260509223345 72 280 0.0 1.7 0.00 0.00 0.00 69 1010.2
20260509222843 73 220 1.7 2.6 0.00 0.00 0.00 69 1010.1
20260509222343 73 329 2.6 3.5 0.00 0.00 0.00 66 1010.1
20260509221838 73 335 0.9 1.7 0.00 0.00 0.00 67 1010.1
20260509221337 74 265 1.7 2.6 0.00 0.00 0.00 66 1010.1
20260509220836 73 260 0.9 1.7 0.00 0.00 0.00 68 1009.9
20260509220333 73 268 0.9 1.7 0.00 0.00 0.00 68 1010.2
20260509215828 73 304 1.7 3.5 0.00 0.00 0.00 65 1009.9
20260509215325 73 140 1.7 2.6 0.00 0.00 0.00 66 1010.2
20260509214822 73 216 0.9 1.7 0.00 0.00 0.00 68 1010.1
20260509214319 73 263 0.9 1.7 0.00 0.00 0.00 67 1009.9
20260509213817 73 231 1.7 1.7 0.00 0.00 0.00 66 1010.1
20260509213312 74 130 1.7 2.6 0.00 0.00 0.00 66 1009.8
20260509212810 73 236 0.0 1.7 0.00 0.00 0.00 68 1009.9
20260509212307 74 226 1.7 3.5 0.00 0.00 0.00 67 1010.2
20260509211802 74 276 0.9 2.6 0.00 0.00 0.00 63 1010.1
20260509211259 74 236 2.6 3.5 0.00 0.00 0.00 63 1009.8
20260509210755 74 205 1.7 2.6 0.00 0.00 0.00 65 1009.9
20260509210253 74 233 0.9 2.6 0.00 0.00 0.00 68 1009.7
20260509205753 73 321 0.9 3.5 0.00 0.00 0.00 64 1009.4
20260509205248 73 128 1.7 1.7 0.00 0.00 0.00 69 1009.6
20260509204744 75 216 0.9 1.7 0.00 0.00 0.00 65 1009.8
20260509204240 75 227 0.0 2.6 0.00 0.00 0.00 66 1009.8
20260509203736 75 151 1.7 1.7 0.00 0.00 0.00 63 1009.8
20260509203235 75 240 0.0 2.6 0.00 0.00 0.00 67 1010.1
20260509202730 75 207 2.6 2.6 0.00 0.00 0.00 65 1010.1
20260509202226 74 277 0.0 3.5 0.00 0.00 0.00 66 1010.2
20260509201721 74 274 0.9 2.6 0.00 0.00 0.00 68 1010.2
20260509201218 74 242 0.9 0.9 0.00 0.00 0.00 67 1010.2
20260509200714 74 303 0.0 2.6 0.00 0.00 0.00 66 1010.1
20260509200209 74 262 2.6 2.6 0.00 0.00 0.00 67 1010.1
20260509195705 74 244 2.6 3.5 0.00 0.00 0.00 68 1010.1
20260509195201 74 4 0.9 3.5 0.00 0.00 0.00 68 1010.2
20260509194701 73 230 2.6 2.6 0.00 0.00 0.00 66 1010.2
20260509194157 74 223 1.7 2.6 0.00 0.00 0.00 67 1010.3
20260509193654 74 301 0.0 2.6 0.00 0.00 0.00 65 1010.4
20260509193149 74 254 0.9 3.5 0.00 0.00 0.00 67 1010.5
20260509192646 73 218 1.7 2.6 0.00 0.00 0.00 67 1010.6
20260509192141 72 218 1.7 1.7 0.00 0.00 0.00 69 1010.5
20260509191641 73 216 1.7 2.6 0.00 0.00 0.00 69 1010.5
20260509191138 72 248 1.7 3.5 0.00 0.00 0.00 71 1010.6
20260509190635 73 205 1.7 1.7 0.00 0.00 0.00 68 1010.6
20260509190132 73 236 1.7 2.6 0.00 0.00 0.00 69 1010.6
20260509185629 73 247 1.7 3.5 0.00 0.00 0.00 69 1010.5
20260509185125 71 218 3.5 3.5 0.00 0.00 0.00 71 1010.4
20260509184623 71 246 0.9 1.7 0.00 0.00 0.00 72 1010.5